Hauptseite
METAR-TAF:

METAR-TAF

Flughäfen :

Épinal, Frankreich

Flughafen Epinal-Mirecourt

Breite: 48-19-31N, Länge: 6-04-00E, Höhe: 330 m

Beobachtung

Neuester Wetterbericht von vor 41 Minuten, um 01:00 UTC
Wind 20 kt aus West
Temperatur 6°C
Luftfeuchtigkeit 81%
Luftdruck 1008 hPa
Sichtweite 10 km oder mehr
Leichtregen

METAR: LFSG 190100Z AUTO 26020KT 9999 -RA BKN022/// BKN029/// OVC034/// ///TCU 06/03 Q1008

Zeit: 02:41 (01:41 UTC)


TAF: fehlend

Wetterbeobachtungen und Prognosen von mehr als 4000 Flughäfen (METAR und TAF Bericht).

Die verfügbaren Stationen werden durch gelbe und rote Markierungen auf der Karte dargestellt.

Führen Sie die Maus auf sie, um den Namen der Station zu sehen.

Darauf klicken, um die Beobachtung von Wetterbeobachtungen und Prognosen zu sehen.

Um die Karte zu ändern : klicken Sie auf den grünen Tasten mit einem schwarzen Kreuz Zum Vergrößern, auf den grünen Button mit einem Gedankenstrich zu verkleinern, oder auf die grünen Pfeile für benachbarte Karten.


METAR-TAF: